[[{"header":{"parameterUnit":"m.s-1","parameterCategory":1,"la1":30.2991,"la2":30.254,"lo1":-89.0895,"lo2":-89.0444,"dy":0.0017,"dx":0.0017,"nx":28,"ny":28,"refTime":"2023-09-24T09:00:00:Z","depth":0,"parameterNumber":2,"parameterNumberName":"U-component_of_WINDS"},"data":[0,0,0,0,0,0,0,0,0,0,0,0,0,0,0,0,0,0,0,0,0,0,0,0,0,0,0,0,0,0,0,0,0,0,0,0,0,0,0,0,0,0,0,0,0,0,0,0,0,0,0,0,0,0,0,0,0,0,-2.7971,-2.7971,0,-2.7908,-2.7908,-2.7907,-2.7784,-2.7782,-2.7779,-2.7777,-2.7717,-2.7718,-2.7718,0,0,0,0,0,0,0,0,0,0,0,0,0,-2.799,-2.799,-2.7971,-2.7971,-2.797,-2.7908,-2.7907,-2.7907,-2.7785,-2.7782,-2.7779,-2.7776,-2.7717,-2.7718,-2.7718,0,0,0,0,0,0,0,0,0,0,0,0,0,-2.796,-2.799,-2.7972,-2.7901,-2.7894,-2.7909,-2.7907,-2.7906,-2.7785,-2.7782,-2.7778,-2.7775,-2.7717,-2.7717,-2.7718,-2.7797,0,0,-2.7721,-2.7722,0,0,0,0,0,0,0,0,-2.7962,-2.796,-2.7913,-2.7906,-2.7899,-2.785,-2.7892,-2.787,-2.7786,-2.7827,-2.7777,-2.7773,-2.7765,-2.7761,-2.7758,-2.7794,-2.7792,-2.7722,-2.7722,-2.7723,-2.7723,0,0,0,0,0,0,0,-2.7964,-2.7962,-2.7946,-2.7912,-2.7903,-2.7874,-2.7866,-2.7887,-2.7817,-2.7823,-2.7814,-2.7808,-2.776,-2.7757,-2.7755,-2.7791,-2.7721,-2.7722,-2.7723,-2.7723,-2.7888,-2.7892,0,0,0,0,0,0,-2.7976,-2.7964,-2.7948,-2.7945,-2.7922,-2.7877,-2.7868,-2.787,-2.7816,-2.7805,-2.7811,-2.7802,-2.7757,-2.7754,-2.7753,-2.784,-2.7723,-2.7723,-2.7724,-2.7884,-2.7889,-2.7893,0,0,0,0,0,0,-2.7977,-2.7976,-2.7951,-2.7952,-2.7946,-2.788,-2.7884,-2.787,-2.7867,-2.7807,-2.7795,-2.7821,-2.7754,-2.7751,-2.7786,-2.7837,-2.7724,-2.7725,-2.788,-2.7886,-2.7891,-2.8017,0,0,0,0,0,0,-2.7978,-2.7977,-2.8005,-2.7953,-2.7947,-2.7985,-2.7887,-2.7872,-2.7868,-2.7856,-2.7813,-2.7802,-2.7751,-2.7786,-2.7787,-2.7836,-2.7726,-2.7875,-2.7883,-2.7889,-2.8008,-2.8027,-2.8042,0,0,0,0,0,-2.7979,-2.8044,-2.8007,-2.8006,-2.7981,-2.7988,-2.7985,-2.7923,-2.7873,-2.7901,-2.7863,-2.7803,-2.7831,-2.779,-2.7791,-2.7841,-2.7872,-2.788,-2.7889,-2.8001,-2.8023,-2.8042,0,0,0,0,0,0,-2.8105,-2.8036,-2.7994,-2.8045,-2.8023,-2.7967,-2.8001,-2.7949,-2.7942,-2.7932,-2.7857,-2.7848,-2.7893,-2.7871,-2.7826,-2.7914,-2.7842,-2.7851,-2.7927,-2.7948,-2.7964,-2.7969,-2.7726,0,0,0,0,0,-2.8139,-2.8149,-2.8089,-2.8139,-2.813,-2.8068,-2.8069,-2.8023,-2.7999,-2.7989,-2.7954,-2.7933,-2.7937,-2.7941,-2.7941,-2.8005,-2.7994,-2.8039,-2.8056,-2.8071,-2.8079,-2.8111,-2.813,-2.7921,-2.7921,-2.7921,0,0,-2.8209,-2.8172,-2.8184,-2.8164,-2.8141,-2.8155,-2.8061,-2.808,-2.8089,-2.7993,-2.8023,-2.7996,-2.7968,-2.8018,-2.8038,-2.8,-2.8135,-2.8082,-2.8093,-2.8094,-2.8122,-2.8141,-2.8159,-2.7927,-2.7926,-2.7925,0,0,-2.8342,-2.8316,-2.8354,-2.8334,-2.8301,-2.8259,-2.8268,-2.822,-2.8198,-2.8227,-2.8155,-2.8166,-2.8174,-2.8157,-2.815,-2.8277,-2.8222,-2.8279,-2.8368,-2.8399,-2.8416,-2.843,-2.8475,-2.8492,-2.8288,-2.8289,-2.8289,0,-2.8434,-2.8449,-2.8381,-2.8404,-2.8397,-2.8309,-2.8348,-2.8331,-2.8302,-2.83,-2.8258,-2.8265,-2.8241,-2.8284,-2.8315,-2.8313,-2.8321,-2.8283,-2.8418,-2.8432,-2.8444,-2.8486,-2.8504,-2.8296,-2.8295,-2.8294,-2.8293,0,-2.8563,-2.8575,-2.8611,-2.8581,-2.8579,-2.861,-2.8547,-2.8553,-2.8508,-2.8471,-2.8502,-2.8469,-2.8461,-2.8468,-2.8425,-2.8506,-2.8484,-2.8432,-2.8358,-2.8473,-2.8511,-2.8526,-2.8306,-2.8303,-2.8301,-2.8299,0,0,-2.8774,-2.8706,-2.872,-2.8706,-2.8663,-2.8672,-2.8699,-2.8689,-2.8696,-2.8678,-2.8699,-2.8708,-2.8659,-2.8651,-2.8605,-2.8633,-2.8735,-2.8577,-2.8575,-2.8607,-2.8822,-2.8861,-2.8881,-2.8699,-2.8702,-2.8704,-2.8824,0,-2.8898,-2.8938,-2.8878,-2.8933,-2.8943,-2.886,-2.8883,-2.886,-2.8827,-2.8832,-2.8795,-2.8802,-2.8737,-2.8731,-2.8755,-2.8718,-2.8777,-2.8708,-2.8718,-2.872,-2.8727,-2.8901,-2.8943,-2.9058,-2.8839,-2.8841,-2.8843,0,-2.9047,-2.9035,-2.9091,-2.9043,-2.9046,-2.9068,-2.9054,-2.9059,-2.9032,-2.9006,-2.8996,-2.8941,-2.8966,-2.8895,-2.8928,-2.8882,-2.8883,-2.8865,-2.8868,-2.8866,-2.8788,-2.8904,-2.9093,-2.9111,-2.8866,-2.8864,-2.8863,0,-2.9195,-2.9193,-2.9225,-2.9216,-2.9162,-2.9179,-2.9158,-2.9127,-2.9125,-2.9113,-2.9111,-2.9103,-2.9099,-2.9095,-2.904,-2.8994,-2.908,-2.9004,-2.9059,-2.9061,-2.9081,-2.908,-2.9273,-2.9083,-2.9083,-2.9082,-2.9082,0,-2.9339,-2.9377,-2.9291,-2.9311,-2.935,-2.9281,-2.9322,-2.9293,-2.9266,-2.9279,-2.9208,-2.9222,-2.9149,-2.9156,-2.9114,-2.9147,-2.9146,-2.9126,-2.9114,-2.9132,-2.9135,-2.9131,-2.9122,-2.9087,-2.9086,-2.9085,-2.9084,0,-2.9511,-2.9455,-2.9484,-2.9431,-2.9418,-2.945,-2.9404,-2.9421,-2.9382,-2.9401,-2.9401,-2.9341,-2.9346,-2.9291,-2.9285,-2.9257,-2.931,-2.9284,-2.9319,-2.9311,-2.9368,-2.9364,-2.9565,-2.9588,-2.9384,-2.9386,-2.9388,0,-2.9606,-2.9632,-2.9581,-2.9584,-2.9566,-2.9572,-2.9569,-2.9502,-2.9502,-2.9472,-2.9494,-2.9492,-2.9487,-2.9499,-2.9456,-2.9451,-2.9425,-2.9496,-2.9424,-2.9441,-2.9425,-2.9424,-2.9427,-2.9511,-2.9514,-2.9516,-2.9517,0,-2.9781,-2.9752,-2.9749,-2.9737,-2.9735,-2.9723,-2.9706,-2.9714,-2.9641,-2.9645,-2.9647,-2.9644,-2.9637,-2.9637,-2.9624,-2.9603,-2.9549,-2.954,-2.9553,-2.9571,-2.959,-2.958,-2.9359,-2.9536,-2.9534,-2.9533,-2.9532,-2.9531,-2.9917,-2.9936,-2.9902,-2.9902,-2.9882,-2.9868,-2.9881,-2.9843,-2.9844,-2.9832,-2.9793,-2.9803,-2.9775,-2.9752,-2.9736,-2.9744,-2.9709,-2.9728,-2.9732,-2.9738,-2.9748,-2.9589,-2.9742,-2.9741,-2.974,-2.974,-2.9739,0,-3.0087,-3.0061,-3.0062,-3.004,-3.004,-2.9986,-2.9965,-2.9969,-2.9978,-2.9956,-2.9952,-2.9956,-2.9955,-2.9912,-2.9906,-2.992,-2.9895,-2.9921,-2.9919,-2.9915,-2.9779,-2.9769,-2.9941,-2.9941,-2.9941,-2.9941,-2.9941,-2.9941,-3.0176,-3.0206,-3.0173,-3.0192,-3.0166,-3.0173,-3.0166,-3.0153,-3.0134,-3.0141,-3.0139,-3.011,-3.008,-3.0071,-3.0069,-3.0056,-3.0057,-3.0092,-3.0071,-2.9945,-2.9925,-2.9906,-2.9896,-3.0093,-3.0093,-3.0206,-3.0207,-3.0208]},{"header":{"parameterUnit":"m.s-1","parameterCategory":1,"la1":30.2991,"la2":30.254,"lo1":-89.0895,"lo2":-89.0444,"dy":0.0017,"dx":0.0017,"nx":28,"ny":28,"refTime":"2023-09-24T09:00:00:Z","depth":0,"parameterNumber":3,"parameterNumberName":"V-component_of_WINDS"},"data":[0,0,0,0,0,0,0,0,0,0,0,0,0,0,0,0,0,0,0,0,0,0,0,0,0,0,0,0,0,0,0,0,0,0,0,0,0,0,0,0,0,0,0,0,0,0,0,0,0,0,0,0,0,0,0,0,0,0,0.239,0.2389,0,0.2337,0.2337,0.2336,0.2273,0.2272,0.2271,0.227,0.2216,0.2215,0.2215,0,0,0,0,0,0,0,0,0,0,0,0,0,0.2437,0.2437,0.239,0.2389,0.2389,0.2337,0.2337,0.2336,0.2273,0.2272,0.227,0.2269,0.2216,0.2215,0.2215,0,0,0,0,0,0,0,0,0,0,0,0,0,0.2404,0.2437,0.239,0.2351,0.2347,0.2337,0.2337,0.2336,0.2273,0.2272,0.227,0.2269,0.2216,0.2215,0.2215,0.2239,0,0,0.2212,0.2212,0,0,0,0,0,0,0,0,0.2406,0.2402,0.2357,0.2354,0.2349,0.231,0.2333,0.2303,0.2273,0.2301,0.227,0.2268,0.2248,0.2245,0.2238,0.2237,0.2234,0.2212,0.2212,0.2211,0.2211,0,0,0,0,0,0,0,0.2408,0.2404,0.2369,0.2357,0.2352,0.2337,0.233,0.2327,0.2284,0.2299,0.2294,0.2289,0.2246,0.2239,0.2236,0.2233,0.2212,0.2211,0.2211,0.2211,0.2251,0.2252,0,0,0,0,0,0,0.2416,0.2407,0.2371,0.2368,0.2375,0.2337,0.233,0.2324,0.2283,0.2276,0.229,0.2286,0.2241,0.2237,0.2234,0.2261,0.2211,0.2211,0.221,0.2249,0.2251,0.2253,0,0,0,0,0,0,0.2418,0.2414,0.2373,0.2386,0.2379,0.2338,0.2332,0.2324,0.2317,0.2277,0.2269,0.2291,0.224,0.2235,0.2239,0.2258,0.221,0.2209,0.2247,0.225,0.2252,0.2314,0,0,0,0,0,0,0.2419,0.2415,0.2423,0.2386,0.2379,0.2378,0.2333,0.2324,0.2316,0.231,0.2276,0.2269,0.2238,0.224,0.2238,0.2256,0.2209,0.2245,0.2248,0.2251,0.231,0.2318,0.2325,0,0,0,0,0,0.2421,0.2442,0.2424,0.242,0.2389,0.2379,0.2375,0.234,0.2318,0.2326,0.2301,0.227,0.2257,0.2241,0.2238,0.2256,0.2244,0.2248,0.2251,0.2306,0.2316,0.2325,0,0,0,0,0,0,0.2482,0.2437,0.2416,0.2426,0.2407,0.2369,0.2378,0.2351,0.2338,0.2333,0.229,0.2283,0.2291,0.2274,0.2258,0.2278,0.2246,0.2249,0.2289,0.2298,0.2306,0.2309,0.2208,0,0,0,0,0,0.2497,0.2493,0.2453,0.2466,0.2458,0.242,0.2414,0.2389,0.2368,0.2359,0.2334,0.2315,0.2306,0.2301,0.2291,0.2308,0.2299,0.2319,0.2326,0.2333,0.2335,0.2344,0.2352,0.2264,0.2264,0.2264,0,0,0.2526,0.2501,0.2501,0.2477,0.246,0.2457,0.2413,0.2412,0.2409,0.2359,0.236,0.2342,0.2317,0.2328,0.2331,0.2313,0.2358,0.2337,0.2342,0.2342,0.2348,0.2356,0.2364,0.2267,0.2266,0.2266,0,0,0.2579,0.256,0.2568,0.2552,0.2526,0.2501,0.2504,0.247,0.2455,0.2457,0.2419,0.2416,0.2402,0.2387,0.2377,0.2427,0.2398,0.2425,0.2463,0.2472,0.2479,0.2485,0.2503,0.251,0.2428,0.2428,0.2428,0,0.2619,0.2613,0.2576,0.2577,0.2568,0.2524,0.2532,0.2518,0.2491,0.2486,0.2467,0.245,0.243,0.2436,0.2449,0.2442,0.2444,0.2428,0.2481,0.2487,0.2491,0.2508,0.2515,0.2431,0.2431,0.2431,0.243,0,0.2664,0.2661,0.2671,0.2646,0.2638,0.2643,0.2608,0.2604,0.2581,0.2558,0.256,0.2536,0.252,0.252,0.2496,0.2524,0.2514,0.2489,0.2455,0.2504,0.2519,0.2525,0.2436,0.2435,0.2434,0.2433,0,0,0.2752,0.2708,0.2712,0.2701,0.267,0.2667,0.2671,0.2656,0.2654,0.2637,0.264,0.263,0.2607,0.2596,0.2571,0.2578,0.262,0.2552,0.2551,0.2566,0.2649,0.2668,0.2676,0.2601,0.2603,0.2603,0.2651,0,0.2799,0.2802,0.277,0.2782,0.2779,0.2737,0.2741,0.2723,0.2702,0.2697,0.2674,0.2668,0.2638,0.2632,0.2638,0.2614,0.2636,0.261,0.2603,0.2603,0.261,0.2683,0.2703,0.2749,0.2657,0.2658,0.2658,0,0.2853,0.284,0.2852,0.2822,0.282,0.2823,0.2808,0.2803,0.2783,0.2767,0.2757,0.2728,0.273,0.2699,0.2702,0.2685,0.2681,0.2669,0.267,0.2667,0.2633,0.2683,0.2763,0.277,0.2667,0.2666,0.2666,0,0.2916,0.2901,0.2907,0.2898,0.2864,0.2867,0.2853,0.2831,0.2825,0.2812,0.2808,0.2795,0.2788,0.278,0.2749,0.2729,0.2756,0.2722,0.2743,0.2744,0.2749,0.2749,0.283,0.2748,0.2748,0.2748,0.2748,0,0.2971,0.298,0.2935,0.2938,0.2947,0.2911,0.2921,0.2903,0.2884,0.2884,0.2848,0.2848,0.2808,0.2804,0.278,0.2786,0.2784,0.2772,0.2765,0.2774,0.2776,0.277,0.2766,0.275,0.2749,0.2749,0.2749,0,0.3042,0.3012,0.3015,0.2983,0.2975,0.2983,0.2956,0.2958,0.2936,0.2936,0.2934,0.29,0.2894,0.2862,0.2849,0.2833,0.2848,0.2835,0.2855,0.285,0.2873,0.2872,0.2952,0.2961,0.2874,0.2875,0.2876,0,0.3078,0.3085,0.3053,0.3051,0.3038,0.3034,0.3028,0.2993,0.2988,0.2966,0.2972,0.2963,0.2954,0.2946,0.292,0.291,0.2896,0.2926,0.2895,0.2904,0.2897,0.2897,0.2897,0.2932,0.2933,0.2934,0.2935,0,0.3147,0.3132,0.3125,0.3113,0.3107,0.3095,0.3082,0.3082,0.3043,0.304,0.3033,0.3027,0.3014,0.3005,0.2991,0.2977,0.295,0.2945,0.2949,0.2959,0.297,0.2964,0.2872,0.2943,0.2942,0.2942,0.2941,0.2941,0.3201,0.3205,0.3185,0.3178,0.3164,0.3153,0.3154,0.3133,0.3127,0.3113,0.3094,0.309,0.3071,0.3049,0.3038,0.3035,0.3019,0.3025,0.3027,0.3029,0.3034,0.2971,0.3032,0.3032,0.3032,0.3031,0.3031,0,0.3268,0.3253,0.3247,0.323,0.3225,0.3201,0.3185,0.3183,0.318,0.3165,0.3157,0.3151,0.3143,0.3118,0.3108,0.311,0.3098,0.3109,0.3108,0.3105,0.3048,0.3046,0.3119,0.3119,0.3119,0.3119,0.3119,0.3119,0.3302,0.3308,0.3291,0.329,0.3275,0.3272,0.3265,0.3255,0.3242,0.3237,0.323,0.3214,0.3195,0.3183,0.3176,0.3169,0.3167,0.3182,0.3171,0.3118,0.3109,0.3101,0.3098,0.3182,0.3182,0.3228,0.3228,0.3229]}]]